Location: Fort Wayne
(41.1310°N, 85.1290°W)
Time: 05:09:01
(UTC-04:00)

Daily predictions for brighter satellites

Satellite Brightness Start Highest point End
(mag) Time Altitude Azimuth Time Altitude Azimuth Time Altitude Azimuth
Cosmos 1943 Rocket 4.5 00:10:18 18° N 00:10:18 18° N 00:11:55 10° N
H-2A R/B 4.4 00:11:38 20° NW 00:11:38 20° NW 00:13:32 10° NNW
CZ-4C R/B 4.5 00:33:39 21° NNW 00:33:39 21° NNW 00:37:12 10° NNE
ATLAS 3B R/B 4.4 00:54:09 27° NNE 00:54:09 27° NNE 00:57:18 10° NNE
Cosmos 2322 Rocket 4.4 03:14:58 21° NNE 03:14:58 21° NNE 03:16:48 10° NNE
SL-16 R/B 4.2 03:22:22 24° NNE 03:22:22 24° NNE 03:24:30 10° NNE
SL-16 R/B 3.9 03:21:34 34° NE 03:21:34 34° NE 03:25:43 10° N
Cosmos 2360 Rocket 3.9 03:42:22 28° ENE 03:42:22 28° ENE 03:45:18 10° NE
Cosmos 1980 Rocket 4.3 03:43:56 19° NNW 03:43:56 19° NNW 03:45:55 10° N
ADEOS Rocket 4.1 03:51:52 10° NNE 03:55:33 36° ENE 03:55:33 36° ENE
CENTAUR R/B 3.8 04:10:12 31° NNW 04:10:12 31° NNW 04:15:39 10° NNE
Cosmos 2333 Rocket 4.3 04:19:44 16° SE 04:21:41 19° E 04:25:32 10° ENE
Cosmos 2322 4.2 04:26:35 55° NNE 04:26:35 55° NNE 04:31:02 10° NNE
DELTA 2 R/B (1) 4.4 04:34:42 44° ESE 04:34:42 44° ESE 04:38:32 10° E
Resurs 1-4 Rocket 3.1 04:31:42 10° N 04:35:04 39° N 04:35:04 39° N
Cosmos 2327 Rocket 4.4 04:36:17 10° N 04:42:35 80° E 04:43:10 72° SE
MOS 1 Rocket 4.3 04:40:17 10° NNE 04:44:28 40° E 04:44:28 40° E
Nadezhda 1 Rocket 4.0 04:47:12 59° SSE 04:48:13 71° E 04:54:15 10° NNE
CZ-2D R/B 3.0 04:44:27 10° N 04:48:20 40° NNW 04:48:20 40° NNW
Cosmos 2208 Rocket 4.1 04:52:22 73° ESE 04:52:26 73° ESE 04:57:53 10° NNE
ADEOS II 3.7 04:50:35 10° NE 04:55:11 30° E 04:59:01 13° SSE
Cosmos 2322 Rocket 3.9 04:56:46 19° NW 04:56:46 19° NW 04:59:52 10° N
Meteor 1-18 Rocket 4.2 04:57:27 65° NW 04:57:27 65° NW 05:02:30 10° N
SL-16 R/B 4.0 05:04:14 18° NW 05:04:14 18° NW 05:07:28 10° N
SL-16 R/B 3.9 05:06:39 22° NW 05:06:39 22° NW 05:09:13 10° NNW
Cosmos 2219 Rocket 2.7 05:02:20 41° SSE 05:03:53 54° ESE 05:09:19 10° NNE
Cosmos 2074 Rocket 3.9 04:59:44 10° NNW 05:05:52 62° W 05:05:52 62° W
Cosmos 1844 Rocket 2.6 05:03:16 10° NNW 05:08:52 81° ENE 05:14:25 10° SSE
Cosmos 1867 4.5 05:04:19 10° NNW 05:09:38 49° NE 05:14:52 10° SE
ARIANE 5 R/B 3.8 05:06:19 10° N 05:09:28 27° NW 05:09:28 27° NW
Cosmos 2237 4.3 05:13:34 56° WNW 05:13:51 57° WNW 05:19:30 10° NNE
CZ-4B R/B 3.6 05:12:34 10° NNE 05:16:06 44° E 05:16:29 43° ESE
COSMOS 2428 2.6 05:17:41 60° WSW 05:18:23 67° WNW 05:24:04 10° NNE
Meteor 1-12 Rocket 4.3 05:13:15 10° NNW 05:18:41 55° W 05:18:41 55° W
Cosmos 1898 Rocket 4.1 05:14:48 10° N 05:19:55 55° ENE 05:24:58 10° SE
Cosmos 2341 Rocket 4.3 05:14:17 10° N 05:20:31 66° E 05:26:40 10° SSE
Okean O Rocket 2.1 05:16:49 10° NNE 05:21:14 59° E 05:22:51 36° SSE
Cosmos 1570 Rocket 4.1 05:23:36 53° WNW 05:23:48 54° WNW 05:28:56 10° N
Cosmos 2360 Rocket 3.2 05:24:09 29° NW 05:24:09 29° NW 05:29:01 10° N
Cosmos 2278 Rocket 2.9 05:26:44 10° NNW 05:32:19 54° ENE 05:37:50 10° SE
ATLAS 5 CENTAUR R/B 2.7 05:26:35 10° NNW 05:32:35 70° NE 05:39:05 10° SE
Gblst 52 Del rocket 4.5 05:35:13 43° WSW 05:35:54 45° SW 05:41:50 10° SSE
Cosmos 2237 Rocket 2.7 05:32:19 19° S 05:36:19 59° ESE 05:41:55 10° NNE
PSLV R/B 3.6 05:32:53 10° N 05:36:40 71° WNW 05:36:42 71° W
Cosmos 1666 2.7 05:38:18 10° N 05:42:13 84° E 05:46:02 10° S
ADEOS Rocket 3.9 05:38:07 10° NNW 05:42:24 24° WNW 05:42:30 24° WNW
SL-8 R/B 3.9 05:40:14 26° NW 05:42:55 70° NNE 05:47:40 10° ESE
Cosmos 1937 Rocket 3.9 05:39:06 10° NNW 05:44:25 66° ENE 05:49:39 10° SSE
Cosmos 1536 Rocket 4.5 05:45:55 31° WNW 05:45:55 31° WNW 05:49:31 10° NNW
Cosmos 1295 Rocket 4.5 05:41:21 10° N 05:47:36 85° E 05:53:43 10° S
Cosmos 2285 Rocket 4.0 05:45:57 18° SSW 05:50:56 88° WNW 05:57:25 10° NNE
PSLV R/B 3.5 05:48:06 10° NNE 05:52:28 88° WNW 05:55:36 19° SSW
Cosmos 405 Rocket 3.3 05:48:44 11° S 05:52:33 60° E 05:56:31 10° NNE
Meteor 2-4 Rocket 3.6 05:49:05 12° S 05:54:12 85° W 05:59:40 10° N
CZ-2C R/B 3.6 05:51:05 10° SSE 05:55:40 85° W 06:00:10 10° NNW
Meteor 1-19 Rocket 4.3 05:52:20 23° SSW 05:55:49 60° WNW 06:01:31 10° N
Cosmos 1743 3.5 05:53:45 10° NNW 05:56:40 33° WNW 05:56:40 33° WNW
Cosmos 962 Rocket 4.5 05:52:39 10° NNW 05:58:52 63° W 06:05:07 10° S
GPS 2-04 Rocket1 3.7 06:02:49 26° SSW 06:04:07 33° S 06:07:39 10° ESE
Cosmos 2333 Rocket 2.3 06:01:47 23° SW 06:05:22 61° WNW 06:11:05 10° NNE
Meteor PRIRODA 3.9 06:01:39 10° NNE 06:05:25 69° ESE 06:09:10 10° S
IRS-1C Rocket 4.1 06:00:19 10° N 06:05:30 61° WNW 06:09:54 14° SSW
Cosmos 2366 rocket 4.4 05:59:24 10° N 06:05:45 67° E 06:12:04 10° SSE
CZ-4C R/B 4.3 05:59:53 10° NNW 06:06:21 38° NE 06:13:27 10° ESE
MTI 4.0 06:05:24 20° SSW 06:07:25 47° W 06:10:38 10° NNW
USA 215 3.2 06:00:53 10° SE 06:07:26 89° SW 06:14:01 10° NW
Cosmos 1814 Rocket 3.9 06:04:23 16° SSW 06:08:36 75° WNW 06:13:46 10° NNE
ERBS 4.3 06:07:39 10° NNW 06:10:46 29° NE 06:13:53 10° E
PAYLOAD B 4.4 06:05:28 10° N 06:10:56 55° WNW 06:15:58 12° SW
Meteor 1-15 Rocket 4.4 06:05:15 10° N 06:11:13 88° E 06:17:08 10° S
Cosmos 1606 Rocket 3.6 06:10:59 10° N 06:15:29 90° W 06:19:58 10° S
Aureole 2 Rocket 2.7 06:14:51 27° SW 06:16:20 45° WNW 06:19:30 10° N
OTV 4 1.8 06:16:08 21° SSW 06:17:01 26° SSE 06:19:24 10° ESE
Cosmos 2298 Rocket 4.2 06:13:31 10° NNW 06:18:41 50° WSW 06:23:47 10° S
Okean 1-7 Rocket 4.0 06:15:40 17° SW 06:18:48 42° WNW 06:23:03 10° N
DELTA 2 R/B (1) 3.6 06:15:28 20° W 06:19:22 74° S 06:24:54 10° ESE
Meteor 1-31 Rocket 2.8 06:16:56 10° NNE 06:20:45 78° ESE 06:24:33 10° S
USA 229 DEB 4.1 06:17:12 19° WSW 06:22:00 48° NW 06:28:43 10° NNE
USA 229 4.1 06:17:17 19° WSW 06:22:06 48° NW 06:28:49 10° NNE
EO 1 Del DPAF 4.0 06:19:24 10° SSW 06:22:50 31° W 06:26:20 10° NNW
ERS-2 2.1 06:19:51 10° NNE 06:23:34 88° W 06:27:15 10° SSW
Cosmos 1238 Rocket 4.3 06:24:34 13° WNW 06:24:34 13° WNW 06:25:28 10° NW
Iridium 2 3.6 06:20:50 10° N 06:24:38 65° W 06:28:26 10° S
Cosmos 1844 4.4 06:21:58 10° NW 06:26:55 30° WSW 06:31:46 10° SSW
Cosmos 2228 3.6 06:24:01 10° N 06:28:19 61° E 06:32:38 10° SSE
Hubble Space Telescope 3.0 06:31:41 10° SSW 06:33:51 14° S 06:36:01 10° SE
NOSS 3-1 (A) 3.6 06:28:18 10° SSW 06:34:02 77° ESE 06:40:30 10° NE
SL-8 Rocket 4.1 06:28:06 10° NNW 06:34:06 54° W 06:40:04 10° SSW
CZ-4B R/B 3.8 06:29:07 10° N 06:34:16 38° WNW 06:39:21 10° SW
ADEOS II 2.8 06:30:11 10° N 06:34:53 34° WNW 06:39:34 10° SW
NOSS 3-1 (C) 3.4 06:29:11 10° SW 06:34:56 79° NW 06:41:27 10° NNE
SL-16 R/B 2.4 06:29:28 10° SSW 06:35:07 76° ESE 06:40:48 10° NNE
Cosmos 1437 Rocket 4.0 06:33:59 10° N 06:37:58 48° ENE 06:41:52 10° SSE
Okean 2 3.8 06:34:27 10° SSW 06:38:24 42° WNW 06:42:23 10° N
Cosmos 1025 Rocket 3.8 06:34:34 10° SW 06:38:30 32° WNW 06:42:27 10° NNW
Feng Yun 1-1 Rocket 4.3 06:34:30 10° NNE 06:40:22 80° WNW 06:46:01 10° SSW
Cosmos 1980 4.3 06:39:14 10° SW 06:44:24 37° WNW 06:49:38 10° N
Cosmos 990 Rocket 4.3 06:40:08 10° NNW 06:45:00 42° WSW 06:49:49 10° S
Cosmos 2219 Rocket 3.4 06:44:05 11° WSW 06:48:10 23° NW 06:52:36 10° N
Cosmos 1809 Rocket 4.5 06:42:40 10° NNW 06:48:48 67° W 06:54:53 10° S
Cosmos 1726 Rocket 3.9 06:44:55 10° NNW 06:49:11 45° W 06:53:25 10° SSW
Cosmos 371 Rocket 3.5 06:45:03 10° SW 06:49:48 55° WNW 06:54:37 10° N
COSMO-SKYMED 1 2.9 06:45:53 10° SSE 06:50:12 74° ENE 06:54:33 10° N
Cosmos 1437 4.1 06:48:59 10° SW 06:51:34 21° WNW 06:54:11 10° NNW
Cosmos 1844 Rocket 4.2 06:49:33 10° WNW 06:51:57 13° W 06:54:19 10° WSW
CZ-4B R/B 4.4 06:49:00 10° N 06:53:21 48° WNW 06:57:37 10° SSW
BREEZE-M DEB (TANK) 4.5 06:50:13 10° W 06:54:45 66° NNW 07:18:07 10° ENE
Cosmos 332 Rocket 4.4 06:50:34 10° SW 06:55:07 38° WNW 06:59:41 10° N
Okean O Rocket 3.5 06:54:46 10° NNW 06:57:06 14° WNW 06:59:25 10° W
Meteor 1-28 Rocket 3.5 06:55:12 10° SSE 06:58:59 73° ENE 07:02:49 10° N
Cosmos 1892 Rocket 4.2 06:57:53 10° SW 07:01:51 34° WNW 07:05:54 10° N
Radarsat Rocket 4.0 06:59:25 10° NNE 07:05:21 90° WNW 07:11:12 10° SSW
Thor Agena Rocket 3.7 07:00:52 10° S 07:05:45 50° W 07:10:41 10° NNW
BREEZE M DEB (TANK) 3.0 07:01:46 10° WNW 07:09:30 49° SW 07:12:27 10° SSE
